SCP
0 0 0 0 0 0 0 0 0 0 0 0 0 0 0 0 0 0 0 0 0 0 0 0 0 0 0 0 0 0 0 0 0 0 0 0 0 0
0 0 0 0 0 0 0 0 0 0 0 0 0 0 0 0 0 0 0 0 0 0 0 0 0 0 0 0 0 0 0 0 0 0 0 0 0 0
0 0 0 0 0 0 0 0 0 0 0 0 0 0 0 0 0 0 0 0 0 0 0 0 0 0 0 0 0 0 0 0 0 0 0 0 0 0
0 0 0 0 0 0 0 0 0 0 0 0 0 0 0 0 0 0 0 0 0 0 0 0 0 0 0 0 0 0 0 0 0 0 0 0 0 0
0 0 0 0 0 0 0 0 0 0 0 0 0 0 0 0 0 0 0 0 0 0 0 0 0 0 0 0 0 0 0 0 0 0 0 0 0 0
0 0 0 0 0 0 0 0 0 0 0 0 0 0 0 0 0 0 0 0 0 0 0 0 0 0 0 0 0 0 0 0 0 0 0 0 0 0
0 0 0 0 0 0 0 0 0 0 0 0 0 0 0 0 0 0 0 0 0 0 0 0 0 0 0 0 0 0 0 0 0 0 0 0 0 0
0 0 0 0 0 0 0 0 0 0 0 0 0 0 0 0 0 0 0 0 0 0 0 0 0 0 0 0 0 0 0 0 0 0 0 0 0 0
0 0 0 0 0 0 0 0 0 0 0 0 0 0 0 0 0 0 0 0 0 0 0 0 0 0 0 0 0 0 0 0 0 0 0 0 0 0
0 0 0 0 0 0 0 0 0 0 0 0 0 0 0 0 0 0 0 0 0 0 0 0 0 0 0 0 0 0 0 0 0 0 0 0 0 0
0 0 0 0 0 0 0 0 0 0 0 0 0 0 0 0 0 0 0 0 0 0 0 0 0 0 0 0 0 0 0 0 0 0 0 0 0 0
0 0 0 0 0 0 0 0 0 0 0 0 0 0 0 0 0 0 0 0 0 0 0 0 0 0 0 0 0 0 0 0 0 0 0 0 0 0
0 0 0 0 0 0 0 0 0 0 0 0 0 0 0 0 0 0 0 0 0 0 0 0 0 0 0 0 0 0 0 0 0 0 0 0 0 0
0 0 0 0 0 -0 0 0 0 0 0 0 0 0 0 0 0 0 0 0 0 0 0 0 0 0 0 0 0 0 0 0 0 0 0 0 0 0
0 0 0 -0 -0 0 -0 -0 0 0 0 0 0 0 0 0 0 0 0 0 0 0 0 0 0 0 0 0 0 0 0 0 0 0 0 0 0 0
0 0 0 0 0 0 0 0 0 0 0 0 0 0 0 0 0 0 0 0 0 0 0 0 0 0 0 0 0 0 0 0 0 0 0 0 0 0
0 0 0 0 0 0 0 0 0 0 0 0 0 0 0 0 0 0 0 0 0 0 0 0 0 0 0 0 0 0 0 0 0 0 0 0 0 0
0 0 0 0 0 0 0 0 0 0 0 0 0 0 0 0 0 0 0 0 0 0 0 0 0 0 0 0 0 0 0 0 0 0 0 0 0 0
0 0 0 0 0 0 0 0 0 0 0 0 0 0 0 0 0 0 0 0 0 0 0 0 0 0 0 0 0 0 0 0 0 0 0 0 0 0
0 0 0 0 0 0 0 0 0 0 0 0 0 0 0 0 0 0 0 0 0 0 0 0 0 0 0 0 0 0 0 0 0 0 0 0 0 0
0 0 0 0 0 0 0 0 0 0 0 0 0 0 0 0 0 0 0 0 0 0 0 0 0 0 0 0 0 0 0 0 0 0 0 0 0 0
0 0 0 0 0 0 0 0 0 0 0 0 0 0 0 0 0 0 0 0 0 0 0 0 0 0 0 0 0 0 0 0 0 0 0 0 0 0
0 0 0 0 0 0 0 0 0 0 0 0 0 0 0 0 0 0 0 0 0 0 0 0 0 0 0 0 0 0 0 0 0 0 0 0 0 0
Wind_Speed_500mb
73 78 95 93 109 110 92 97 90 64 65 68 74 76 74 68 63 60 56 56 52 50 51 48 49 43 37 39 45 50 47 41 42 40 38 38 39 39
71 77 88 82 103 113 109 105 92 84 73 75 80 85 84 76 67 63 62 59 61 56 54 53 50 46 42 47 50 51 51 43 40 34 28 31 36 41
74 70 93 82 110 118 109 106 101 87 79 85 89 81 83 78 74 72 67 62 64 61 66 60 53 49 46 49 54 51 41 30 26 23 30 32 31 32
77 81 85 83 80 103 110 108 99 88 97 99 93 88 86 85 79 77 70 68 64 65 69 56 52 42 49 45 49 33 22 16 24 28 24 25 15 11
65 67 67 66 71 94 111 107 102 99 89 98 104 95 92 88 82 79 76 72 63 68 58 42 37 45 38 29 25 17 16 23 21 20 16 8 8 11
63 59 59 60 81 101 99 95 99 101 97 100 105 102 99 91 81 79 68 62 57 53 45 44 34 31 25 23 17 20 19 18 16 9 7 6 7 8
58 53 55 57 57 82 114 114 75 87 110 107 109 108 103 101 96 85 74 66 60 54 45 32 34 23 26 23 24 21 16 9 8 8 7 7 7 7
53 55 54 55 56 57 94 112 95 95 118 116 115 114 106 93 85 87 75 65 59 53 39 43 34 33 25 21 19 14 9 8 9 8 8 9 9 7
57 54 55 58 59 73 77 100 95 105 83 101 114 108 98 84 61 72 76 76 71 49 46 39 37 29 26 23 14 16 13 12 11 10 11 11 10 9
54 55 55 56 60 70 76 107 105 107 75 73 92 92 81 61 59 71 71 75 54 42 48 43 39 37 30 18 21 20 17 13 14 14 13 13 12 12
61 61 62 61 62 59 84 88 98 87 86 80 69 65 59 65 71 75 77 66 60 58 56 42 46 35 25 26 23 15 13 15 14 14 16 16 15 13
64 60 59 61 62 64 88 103 97 97 99 87 78 72 66 71 71 66 66 67 65 49 52 45 45 38 29 32 25 18 16 15 13 13 14 16 15 13
57 57 58 55 53 54 83 109 105 102 87 80 83 78 79 77 66 53 43 45 48 38 47 47 40 41 26 30 31 23 20 18 14 11 10 13 15 18
53 51 44 37 36 48 69 86 81 77 77 79 75 71 61 56 53 52 50 46 41 26 34 36 36 36 34 29 34 29 25 22 19 12 10 14 16 20
47 41 37 31 32 44 51 51 62 63 60 57 61 65 66 63 58 52 47 37 33 35 33 29 25 27 27 26 30 32 27 21 18 16 14 14 18 22
53 48 42 44 45 50 57 63 63 65 68 72 75 69 63 57 50 43 44 42 37 39 34 29 26 24 24 23 26 28 23 16 15 18 17 15 19 24
55 53 55 57 61 66 67 64 64 66 68 67 66 64 60 55 50 45 40 39 34 34 32 28 22 21 22 21 20 18 19 17 17 17 20 18 18 20
65 67 67 72 76 76 74 73 69 67 65 64 62 61 60 54 52 46 37 33 32 29 25 20 19 18 19 18 20 18 16 16 16 17 22 25 14 16
75 78 79 79 79 79 77 73 72 67 65 62 59 55 54 51 46 43 38 31 29 24 20 17 13 14 17 20 19 18 16 18 18 16 19 22 22 11
78 84 85 83 80 78 74 74 72 68 62 58 55 52 49 45 42 38 33 27 22 19 16 14 14 16 16 15 17 14 17 19 22 22 19 20 18 14
73 74 74 76 75 73 72 69 65 62 59 58 54 48 44 38 38 34 29 22 16 14 11 9 6 3 3 4 7 12 18 22 24 26 26 29 21 12
67 71 72 71 70 69 68 66 65 61 58 53 51 45 40 33 30 27 22 18 17 13 8 5 3 3 6 9 10 12 10 18 25 24 28 26 21 19
67 67 68 69 67 65 65 66 61 57 50 46 43 39 34 31 26 21 18 16 12 8 7 5 4 4 6 9 14 17 18 17 18 14 15 17 19 16
Wind_Direction_500mb
241 239 235 237 227 216 206 201 200 188 192 199 207 210 214 216 222 217 220 223 227 227 232 232 236 242 255 273 286 287 278 279 287 288 289 288 295 299
240 244 240 244 229 217 210 210 209 207 192 203 202 208 209 212 215 221 225 230 227 230 237 237 242 247 261 280 287 285 276 284 285 284 291 293 300 303
239 248 237 257 236 218 210 209 211 208 199 196 206 205 204 209 213 217 222 226 227 233 240 234 238 246 273 277 284 279 278 274 274 284 291 299 305 309
242 244 247 252 235 216 210 212 213 211 209 203 201 200 203 204 211 215 218 220 221 234 241 229 236 260 280 275 280 270 258 265 282 293 302 305 312 313
247 248 245 248 236 208 205 208 207 208 210 214 205 199 198 199 208 207 217 208 218 225 235 240 245 275 271 257 249 236 264 279 289 300 307 302 310 319
246 247 246 250 233 224 213 205 210 210 206 211 209 200 199 198 203 206 200 207 212 222 219 238 253 255 249 237 227 258 271 284 293 292 283 285 299 311
247 247 243 238 243 215 213 213 210 206 208 208 207 201 196 199 204 206 205 210 214 222 230 238 252 240 240 231 245 253 274 282 283 275 272 266 269 293
248 247 250 246 244 248 229 215 212 223 215 209 209 206 205 203 210 219 211 208 210 220 226 235 235 235 231 235 253 273 279 264 264 257 250 238 239 263
248 249 248 249 249 248 247 229 219 220 226 217 215 211 204 209 226 222 217 227 214 220 222 216 218 214 220 233 248 259 254 266 261 252 245 232 241 255
247 247 247 247 247 240 220 217 213 209 211 220 221 215 215 215 224 220 223 221 218 225 212 202 202 206 217 221 231 235 242 247 241 238 233 226 238 238
246 248 253 247 251 252 237 207 197 193 202 206 206 215 224 224 231 235 213 212 213 199 201 204 201 199 199 213 216 227 239 239 236 235 227 227 223 234
243 247 251 248 249 253 230 225 204 200 197 201 214 216 226 227 212 210 230 227 216 195 201 200 192 190 185 205 213 221 224 225 228 232 222 223 226 248
238 242 249 248 248 237 224 219 216 199 203 214 219 212 209 202 201 200 204 200 198 198 196 194 193 195 193 196 199 205 212 217 214 223 231 235 254 270
236 235 234 241 225 223 209 204 209 211 207 200 184 180 174 171 170 169 173 179 190 190 184 187 196 198 205 191 186 197 207 217 217 217 234 253 268 284
214 208 223 209 201 198 197 195 191 184 180 177 169 163 163 164 164 164 166 166 164 158 167 181 180 192 192 200 199 195 206 218 226 243 258 268 279 293
197 195 189 177 176 180 180 178 173 173 173 167 160 156 153 152 151 150 157 158 162 159 164 168 175 183 184 185 190 197 204 216 233 253 271 287 291 298
192 177 171 170 166 162 161 163 163 161 158 155 152 148 145 143 144 151 158 157 161 159 159 161 170 181 187 191 197 207 213 227 244 260 272 283 284 289
177 168 166 164 162 162 160 156 154 154 152 151 147 144 142 147 150 151 155 157 160 157 158 160 167 175 183 193 212 220 233 251 259 274 286 289 280 272
174 165 164 163 160 158 156 154 150 149 147 144 140 143 147 149 150 151 152 155 152 149 145 149 164 183 191 201 212 228 242 256 268 268 273 279 285 286
166 162 161 160 157 153 151 148 145 141 137 136 144 147 146 147 147 147 147 151 150 141 142 153 167 180 184 195 203 219 260 268 270 272 268 269 278 281
157 154 153 150 150 150 148 144 139 132 140 145 142 142 143 146 145 145 147 148 149 149 152 152 157 194 247 242 233 228 235 264 282 289 296 305 310 301
148 147 147 146 144 143 137 131 137 146 144 143 142 143 142 142 144 147 148 150 155 158 169 157 170 259 284 294 283 285 274 243 256 269 281 288 296 311
141 139 138 137 136 134 139 144 143 142 143 144 144 145 145 147 149 150 153 159 164 174 189 206 227 280 276 277 298 300 291 281 285 283 202 233 260 277
Wind_Speed_850mb
73 78 95 93 109 110 92 97 90 64 65 68 74 76 74 68 63 60 56 56 52 50 51 48 49 43 37 39 45 50 47 41 42 40 38 38 39 39
71 77 88 82 103 113 109 105 92 84 73 75 80 85 84 76 67 63 62 59 61 56 54 53 50 46 42 47 50 51 51 43 40 34 28 31 36 41
74 70 93 82 110 118 109 106 101 87 79 85 89 81 83 78 74 72 67 62 64 61 66 60 53 49 46 49 54 51 41 30 26 23 30 32 31 32
77 81 85 83 80 103 110 108 99 88 97 99 93 88 86 85 79 77 70 68 64 65 69 56 52 42 49 45 49 33 22 16 24 28 24 25 15 11
65 67 67 66 71 94 111 107 102 99 89 98 104 95 92 88 82 79 76 72 63 68 58 42 37 45 38 29 25 17 16 23 21 20 16 8 8 11
63 59 59 60 81 101 99 95 99 101 97 100 105 102 99 91 81 79 68 62 57 53 45 44 34 31 25 23 17 20 19 18 16 9 7 6 7 8
58 53 55 57 57 82 114 114 75 87 110 107 109 108 103 101 96 85 74 66 60 54 45 32 34 23 26 23 24 21 16 9 8 8 7 7 7 7
53 55 54 55 56 57 94 112 95 95 118 116 115 114 106 93 85 87 75 65 59 53 39 43 34 33 25 21 19 14 9 8 9 8 8 9 9 7
57 54 55 58 59 73 77 100 95 105 83 101 114 108 98 84 61 72 76 76 71 49 46 39 37 29 26 23 14 16 13 12 11 10 11 11 10 9
54 55 55 56 60 70 76 107 105 107 75 73 92 92 81 61 59 71 71 75 54 42 48 43 39 37 30 18 21 20 17 13 14 14 13 13 12 12
61 61 62 61 62 59 84 88 98 87 86 80 69 65 59 65 71 75 77 66 60 58 56 42 46 35 25 26 23 15 13 15 14 14 16 16 15 13
64 60 59 61 62 64 88 103 97 97 99 87 78 72 66 71 71 66 66 67 65 49 52 45 45 38 29 32 25 18 16 15 13 13 14 16 15 13
57 57 58 55 53 54 83 109 105 102 87 80 83 78 79 77 66 53 43 45 48 38 47 47 40 41 26 30 31 23 20 18 14 11 10 13 15 18
53 51 44 37 36 48 69 86 81 77 77 79 75 71 61 56 53 52 50 46 41 26 34 36 36 36 34 29 34 29 25 22 19 12 10 14 16 20
47 41 37 31 32 44 51 51 62 63 60 57 61 65 66 63 58 52 47 37 33 35 33 29 25 27 27 26 30 32 27 21 18 16 14 14 18 22
53 48 42 44 45 50 57 63 63 65 68 72 75 69 63 57 50 43 44 42 37 39 34 29 26 24 24 23 26 28 23 16 15 18 17 15 19 24
55 53 55 57 61 66 67 64 64 66 68 67 66 64 60 55 50 45 40 39 34 34 32 28 22 21 22 21 20 18 19 17 17 17 20 18 18 20
65 67 67 72 76 76 74 73 69 67 65 64 62 61 60 54 52 46 37 33 32 29 25 20 19 18 19 18 20 18 16 16 16 17 22 25 14 16
75 78 79 79 79 79 77 73 72 67 65 62 59 55 54 51 46 43 38 31 29 24 20 17 13 14 17 20 19 18 16 18 18 16 19 22 22 11
78 84 85 83 80 78 74 74 72 68 62 58 55 52 49 45 42 38 33 27 22 19 16 14 14 16 16 15 17 14 17 19 22 22 19 20 18 14
73 74 74 76 75 73 72 69 65 62 59 58 54 48 44 38 38 34 29 22 16 14 11 9 6 3 3 4 7 12 18 22 24 26 26 29 21 12
67 71 72 71 70 69 68 66 65 61 58 53 51 45 40 33 30 27 22 18 17 13 8 5 3 3 6 9 10 12 10 18 25 24 28 26 21 19
67 67 68 69 67 65 65 66 61 57 50 46 43 39 34 31 26 21 18 16 12 8 7 5 4 4 6 9 14 17 18 17 18 14 15 17 19 16
Wind_Direction_850mb
241 239 235 237 227 216 206 201 200 188 192 199 207 210 214 216 222 217 220 223 227 227 232 232 236 242 255 273 286 287 278 279 287 288 289 288 295 299
240 244 240 244 229 217 210 210 209 207 192 203 202 208 209 212 215 221 225 230 227 230 237 237 242 247 261 280 287 285 276 284 285 284 291 293 300 303
239 248 237 257 236 218 210 209 211 208 199 196 206 205 204 209 213 217 222 226 227 233 240 234 238 246 273 277 284 279 278 274 274 284 291 299 305 309
242 244 247 252 235 216 210 212 213 211 209 203 201 200 203 204 211 215 218 220 221 234 241 229 236 260 280 275 280 270 258 265 282 293 302 305 312 313
247 248 245 248 236 208 205 208 207 208 210 214 205 199 198 199 208 207 217 208 218 225 235 240 245 275 271 257 249 236 264 279 289 300 307 302 310 319
246 247 246 250 233 224 213 205 210 210 206 211 209 200 199 198 203 206 200 207 212 222 219 238 253 255 249 237 227 258 271 284 293 292 283 285 299 311
247 247 243 238 243 215 213 213 210 206 208 208 207 201 196 199 204 206 205 210 214 222 230 238 252 240 240 231 245 253 274 282 283 275 272 266 269 293
248 247 250 246 244 248 229 215 212 223 215 209 209 206 205 203 210 219 211 208 210 220 226 235 235 235 231 235 253 273 279 264 264 257 250 238 239 263
248 249 248 249 249 248 247 229 219 220 226 217 215 211 204 209 226 222 217 227 214 220 222 216 218 214 220 233 248 259 254 266 261 252 245 232 241 255
247 247 247 247 247 240 220 217 213 209 211 220 221 215 215 215 224 220 223 221 218 225 212 202 202 206 217 221 231 235 242 247 241 238 233 226 238 238
246 248 253 247 251 252 237 207 197 193 202 206 206 215 224 224 231 235 213 212 213 199 201 204 201 199 199 213 216 227 239 239 236 235 227 227 223 234
243 247 251 248 249 253 230 225 204 200 197 201 214 216 226 227 212 210 230 227 216 195 201 200 192 190 185 205 213 221 224 225 228 232 222 223 226 248
238 242 249 248 248 237 224 219 216 199 203 214 219 212 209 202 201 200 204 200 198 198 196 194 193 195 193 196 199 205 212 217 214 223 231 235 254 270
236 235 234 241 225 223 209 204 209 211 207 200 184 180 174 171 170 169 173 179 190 190 184 187 196 198 205 191 186 197 207 217 217 217 234 253 268 284
214 208 223 209 201 198 197 195 191 184 180 177 169 163 163 164 164 164 166 166 164 158 167 181 180 192 192 200 199 195 206 218 226 243 258 268 279 293
197 195 189 177 176 180 180 178 173 173 173 167 160 156 153 152 151 150 157 158 162 159 164 168 175 183 184 185 190 197 204 216 233 253 271 287 291 298
192 177 171 170 166 162 161 163 163 161 158 155 152 148 145 143 144 151 158 157 161 159 159 161 170 181 187 191 197 207 213 227 244 260 272 283 284 289
177 168 166 164 162 162 160 156 154 154 152 151 147 144 142 147 150 151 155 157 160 157 158 160 167 175 183 193 212 220 233 251 259 274 286 289 280 272
174 165 164 163 160 158 156 154 150 149 147 144 140 143 147 149 150 151 152 155 152 149 145 149 164 183 191 201 212 228 242 256 268 268 273 279 285 286
166 162 161 160 157 153 151 148 145 141 137 136 144 147 146 147 147 147 147 151 150 141 142 153 167 180 184 195 203 219 260 268 270 272 268 269 278 281
157 154 153 150 150 150 148 144 139 132 140 145 142 142 143 146 145 145 147 148 149 149 152 152 157 194 247 242 233 228 235 264 282 289 296 305 310 301
148 147 147 146 144 143 137 131 137 146 144 143 142 143 142 142 144 147 148 150 155 158 169 157 170 259 284 294 283 285 274 243 256 269 281 288 296 311
141 139 138 137 136 134 139 144 143 142 143 144 144 145 145 147 149 150 153 159 164 174 189 206 227 280 276 277 298 300 291 281 285 283 202 233 260 277